Find Hot Bird 4

NORAD ID: 25237 Int'l Des: 1998-013 Owner: EUTEL Country: I-EUT operational
HEOCIRCULAR

Live-Position

3D-Globus wird geladen...

Über Hot Bird 4

Beschreibung wird geladen...

Nächste Überflüge

Passes for default location (London). Set your location on the main map for personalized predictions.

Höhenverlauf

Loading altitude history...

Zweizeiliger Elementsatz

1 25237U 98013A 26106.88159203 .00000016 00000-0 00000-0 0 9998
2 25237 10.9355 46.8284 0007494 314.6623 228.1324 0.98274680 39621
Epoch: 16. Apr. 2026 • Age: 21 hours

Aktueller Status

Höhe 36386.4 km
Geschwindigkeit 3.05 km/s
Subsatellitenpunkt 8.90°N, 61.59°E
Startdatum 27. Feb. 1998
Alter 28.1 years
Typ other

Technische Details

Klassifizierung Payload
Masse 2885.00 kg
Trockenmasse 1310.00 kg
Gesamtmasse 2885.00 kg
Länge 4.00 m
Durchmesser 2.30 m
Spannweite 27.90 m
Form Box + 2 Pan
Hersteller MMST
Bus-Typ Eurostar 2000+
Phasenstatus Renamed
Besitzer/Staat EUTEL/I-EUT

Most Searched